SQ6RR-11 Weather Reports


time (UTC)temp
F
wind
direction
speed
knots
gust
knots
rain 1hr
in
rain 24hr
in
rain mn
in
humidity
%
barometer
mb
20260905100412 66 0 0.0 0.0 0.00 0.00 0.00 44 1019.3
20260905095941 66 0 0.0 0.0 0.00 0.00 0.00 44 1019.1
20260905095521 66 0 0.0 0.0 0.00 0.00 0.00 45 1019.2
20260905095057 66 0 0.0 0.0 0.00 0.00 0.00 43 1019.3
20260905094610 67 0 0.0 0.0 0.00 0.00 0.00 43 1019.1
20260905094122 68 0 0.0 0.0 0.00 0.00 0.00 46 1019.2
20260905093702 68 0 0.0 0.0 0.00 0.00 0.00 45 1019.2
20260905093232 68 0 0.0 0.0 0.00 0.00 0.00 48 1019.2
20260905092811 66 0 0.0 0.0 0.00 0.00 0.00 48 1019.2
20260905092402 66 0 0.0 0.0 0.00 0.00 0.00 47 1019.2
20260905091922 66 0 0.0 0.0 0.00 0.00 0.00 49 1019.2
20260905091442 66 0 0.0 0.0 0.00 0.00 0.00 50 1019.2
20260905091007 65 0 0.0 0.0 0.00 0.00 0.00 50 1019.3
20260905090539 66 0 0.0 0.0 0.00 0.00 0.00 50 1019.3
20260905090115 67 0 0.0 0.0 0.00 0.00 0.00 49 1019.2
20260905085647 66 0 0.0 0.0 0.00 0.00 0.00 46 1019.2
20260905085227 67 0 0.0 0.0 0.00 0.00 0.00 49 1019.1
20260905084737 68 0 0.0 0.0 0.00 0.00 0.00 50 1018.9
20260905084252 67 0 0.0 0.0 0.00 0.00 0.00 52 1018.9
20260905083833 66 0 0.0 0.0 0.00 0.00 0.00 49 1019.0
20260905083347 67 0 0.0 0.0 0.00 0.00 0.00 54 1019.0
20260905082913 68 0 0.0 0.0 0.00 0.00 0.00 54 1018.9
20260905082440 67 0 0.0 0.0 0.00 0.00 0.00 57 1018.9
20260905082020 66 0 0.0 0.0 0.00 0.00 0.00 58 1018.8
20260905081537 66 0 0.0 0.0 0.00 0.00 0.00 58 1018.9
20260905081102 65 0 0.0 0.0 0.00 0.00 0.00 62 1018.9
20260905080641 64 0 0.0 0.0 0.00 0.00 0.00 61 1018.8
20260905080152 63 0 0.0 0.0 0.00 0.00 0.00 59 1018.7
20260905075716 64 0 0.0 0.0 0.00 0.00 0.00 60 1018.6
20260905075257 64 0 0.0 0.0 0.00 0.00 0.00 63 1018.7
20260905074840 64 0 0.0 0.0 0.00 0.00 0.00 63 1018.7
20260905074412 64 0 0.0 0.0 0.00 0.00 0.00 61 1018.7
20260905073932 63 0 0.0 0.0 0.00 0.00 0.00 63 1018.6
20260905073502 63 0 0.0 0.0 0.00 0.00 0.00 65 1018.7
20260905073057 62 0 0.0 0.0 0.00 0.00 0.00 66 1018.7
20260905072632 61 0 0.0 0.0 0.00 0.00 0.00 65 1018.7
20260905072216 61 0 0.0 0.0 0.00 0.00 0.00 65 1018.5
20260905071802 62 0 0.0 0.0 0.00 0.00 0.00 65 1018.6
20260905071327 62 0 0.0 0.0 0.00 0.00 0.00 68 1018.5
20260905070840 61 0 0.0 0.0 0.00 0.00 0.00 71 1018.6
20260905070402 60 0 0.0 0.0 0.00 0.00 0.00 70 1018.6
20260905065938 60 0 0.0 0.0 0.00 0.00 0.00 68 1018.5
20260905065457 59 0 0.0 0.0 0.00 0.00 0.00 69 1018.4
20260905065012 59 0 0.0 0.0 0.00 0.00 0.00 68 1018.4
20260905064535 60 0 0.0 0.0 0.00 0.00 0.00 71 1018.5
20260905064056 59 0 0.0 0.0 0.00 0.00 0.00 69 1018.3
20260905063627 60 0 0.0 0.0 0.00 0.00 0.00 75 1018.3
20260905063200 59 0 0.0 0.0 0.00 0.00 0.00 74 1018.3
20260905062752 59 0 0.0 0.0 0.00 0.00 0.00 74 1018.3
20260905062331 60 0 0.0 0.0 0.00 0.00 0.00 75 1018.2
20260905061852 59 0 0.0 0.0 0.00 0.00 0.00 77 1018.1
20260905061407 60 0 0.0 0.0 0.00 0.00 0.00 78 1018.1
20260905060941 59 0 0.0 0.0 0.00 0.00 0.00 80 1018.0
20260905060520 59 0 0.0 0.0 0.00 0.00 0.00 80 1018.1
20260905060035 59 0 0.0 0.0 0.00 0.00 0.00 84 1017.9
20260905055615 58 0 0.0 0.0 0.00 0.00 0.00 85 1017.9
20260905055152 58 0 0.0 0.0 0.00 0.00 0.00 87 1017.9
20260905054717 58 0 0.0 0.0 0.00 0.00 0.00 88 1017.8
20260905054249 57 0 0.0 0.0 0.00 0.00 0.00 88 1017.7
20260905053827 57 0 0.0 0.0 0.00 0.00 0.00 88 1017.6
20260905053347 57 0 0.0 0.0 0.00 0.00 0.00 88 1017.7
20260905052912 57 0 0.0 0.0 0.00 0.00 0.00 88 1017.6
20260905052502 57 0 0.0 0.0 0.00 0.00 0.00 87 1017.6
20260905052016 57 0 0.0 0.0 0.00 0.00 0.00 87 1017.6
20260905051537 57 0 0.0 0.0 0.00 0.00 0.00 87 1017.5
20260905051115 57 0 0.0 0.0 0.00 0.00 0.00 86 1017.4
20260905050702 57 0 0.0 0.0 0.00 0.00 0.00 87 1017.4
20260905050225 57 0 0.0 0.0 0.00 0.00 0.00 87 1017.2
20260905045802 57 0 0.0 0.0 0.00 0.00 0.00 87 1017.2
20260905045324 58 0 0.0 0.0 0.00 0.00 0.00 87 1017.2
20260905044907 58 0 0.0 0.0 0.00 0.00 0.00 87 1017.3
20260905044440 58 0 0.0 0.0 0.00 0.00 0.00 87 1017.3
20260905044003 58 0 0.0 0.0 0.00 0.00 0.00 87 1017.1
20260905043546 57 0 0.0 0.0 0.00 0.00 0.00 88 1017.1
20260905043107 57 0 0.0 0.0 0.00 0.00 0.00 88 1016.9
20260905042657 58 0 0.0 0.0 0.00 0.00 0.00 89 1016.9
20260905042210 58 0 0.0 0.0 0.00 0.00 0.00 89 1016.7
20260905041757 58 0 0.0 0.0 0.00 0.00 0.00 89 1016.6
20260905041312 58 0 0.0 0.0 0.00 0.00 0.00 89 1016.6
20260905040832 58 0 0.0 0.0 0.00 0.00 0.00 89 1016.7
20260905040357 58 0 0.0 0.0 0.00 0.00 0.00 90 1016.5
20260905035912 57 0 0.0 0.0 0.00 0.00 0.00 90 1016.6
20260905035437 57 0 0.0 0.0 0.00 0.00 0.00 90 1016.6
20260905035011 57 0 0.0 0.0 0.00 0.00 0.00 91 1016.5
20260905034532 57 0 0.0 0.0 0.00 0.00 0.00 91 1016.4
20260905034102 57 0 0.0 0.0 0.00 0.00 0.00 93 1016.4
20260905033625 57 0 0.0 0.0 0.00 0.00 0.00 93 1016.3
20260905033154 57 0 0.0 0.0 0.00 0.00 0.00 93 1016.4
20260905032732 57 0 0.0 0.0 0.00 0.00 0.00 93 1016.4
20260905032247 57 0 0.0 0.0 0.00 0.00 0.00 94 1016.2
20260905031757 57 0 0.0 0.0 0.00 0.00 0.00 94 1016.5
20260905031322 57 0 0.0 0.0 0.00 0.00 0.00 95 1016.3
20260905030851 57 0 0.0 0.0 0.00 0.00 0.00 95 1016.1
20260905030430 57 0 0.0 0.0 0.00 0.00 0.00 96 1016.2
20260905030012 57 0 0.0 0.0 0.00 0.00 0.00 96 1016.2
20260905025541 57 0 0.0 0.0 0.00 0.00 0.00 97 1016.0
20260905025132 57 0 0.0 0.0 0.00 0.00 0.00 98 1016.0
20260905024657 56 0 0.0 0.0 0.00 0.00 0.00 97 1015.9
20260905024227 56 0 0.0 0.0 0.00 0.00 0.00 98 1015.7
20260905023808 56 0 0.0 0.0 0.00 0.00 0.00 98 1015.7
20260905023342 56 0 0.0 0.0 0.00 0.00 0.00 99 1015.7
20260905022927 57 0 0.0 0.0 0.00 0.00 0.00 99 1015.7
20260905022507 56 0 0.0 0.0 0.00 0.00 0.00 99 1015.6
20260905022041 56 0 0.0 0.0 0.00 0.00 0.00 99 1015.7
20260905021602 56 0 0.0 0.0 0.00 0.00 0.00 99 1015.6
20260905021132 56 0 0.0 0.0 0.00 0.00 0.00 99 1015.2
20260905020702 56 0 0.0 0.0 0.00 0.00 0.00 99 1015.2
20260905020237 56 0 0.0 0.0 0.00 0.00 0.00 99 1014.8
20260905015817 56 0 0.0 0.0 0.00 0.00 0.00 99 1014.9
20260905015342 56 0 0.0 0.0 0.00 0.00 0.00 99 1015.1
20260905014907 56 0 0.0 0.0 0.00 0.00 0.00 99 1015.2
20260905014422 57 0 0.0 0.0 0.00 0.00 0.00 99 1014.6
20260905013951 56 0 0.0 0.0 0.00 0.00 0.00 99 1014.7
20260905013547 56 0 0.0 0.0 0.00 0.00 0.00 99 1015.2
20260905013117 56 0 0.0 0.0 0.00 0.00 0.00 99 1015.3
20260905012637 56 0 0.0 0.0 0.00 0.00 0.00 99 1015.4
20260905012211 56 0 0.0 0.0 0.00 0.00 0.00 99 1015.4
20260905011752 56 0 0.0 0.0 0.00 0.00 0.00 99 1015.2
20260905011322 57 0 0.0 0.0 0.00 0.00 0.00 99 1014.9
20260905010912 56 0 0.0 0.0 0.00 0.00 0.00 99 1015.3
20260905010435 57 0 0.0 0.0 0.00 0.00 0.00 99 1015.2
20260905010022 57 0 0.0 0.0 0.00 0.00 0.00 99 1014.9
20260905005559 57 0 0.0 0.0 0.00 0.00 0.00 99 1015.2
20260905005142 57 0 0.0 0.0 0.00 0.00 0.00 99 1015.1
20260905004705 57 0 0.0 0.0 0.00 0.00 0.00 99 1015.2
20260905004227 57 0 0.0 0.0 0.00 0.00 0.00 99 1015.1
20260905003757 57 0 0.0 0.0 0.00 0.00 0.00 99 1015.4
20260905003317 57 0 0.0 0.0 0.00 0.00 0.00 99 1015.4
20260905002857 57 0 0.0 0.0 0.00 0.00 0.00 99 1015.4
20260905002427 57 0 0.0 0.0 0.00 0.00 0.00 99 1015.4
20260905002005 57 0 0.0 0.0 0.00 0.00 0.00 99 1015.4
20260905001552 57 0 0.0 0.0 0.00 0.00 0.00 99 1015.4
20260905001137 57 0 0.0 0.0 0.00 0.00 0.00 99 1015.6
20260905000652 58 0 0.0 0.0 0.00 0.00 0.00 99 1015.3
20260905000227 58 0 0.0 0.0 0.00 0.00 0.00 99 1015.0
20260904235757 58 0 0.0 0.0 0.00 0.00 0.00 99 1015.0
20260904235322 58 0 0.0 0.0 0.00 0.00 0.00 99 1015.2
20260904234852 59 0 0.0 0.0 0.00 0.00 0.00 99 1015.2
20260904234407 59 0 0.0 0.0 0.00 0.00 0.00 99 1014.9
20260904233942 59 0 0.0 0.0 0.00 0.00 0.00 99 1014.5
20260904233517 59 0 0.0 0.0 0.00 0.00 0.00 99 1014.2
20260904233047 59 0 0.0 0.0 0.00 0.00 0.00 99 1014.3
20260904232613 59 0 0.0 0.0 0.00 0.00 0.00 99 1014.5
20260904232150 60 0 0.0 0.0 0.00 0.00 0.00 99 1014.7
20260904231719 60 0 0.0 0.0 0.00 0.00 0.00 99 1014.1
20260904231256 60 0 0.0 0.0 0.00 0.00 0.00 99 1014.3
20260904230822 60 0 0.0 0.0 0.00 0.00 0.00 99 1014.5
20260904230406 60 0 0.0 0.0 0.00 0.00 0.00 99 1014.6
20260904225957 60 0 0.0 0.0 0.00 0.00 0.00 99 1014.2
20260904225530 60 0 0.0 0.0 0.00 0.00 0.00 99 1014.0
20260904225052 60 0 0.0 0.0 0.00 0.00 0.00 99 1013.9
20260904224616 60 0 0.0 0.0 0.00 0.00 0.00 98 1013.9
20260904224137 60 0 0.0 0.0 0.00 0.00 0.00 97 1014.0
20260904223647 60 0 0.0 0.0 0.00 0.00 0.00 95 1014.2
20260904223210 60 0 0.0 0.0 0.00 0.00 0.00 93 1014.3
20260904222746 60 0 0.0 0.0 0.00 0.00 0.00 91 1014.5
20260904222326 60 0 0.0 0.0 0.00 0.00 0.00 90 1014.4
20260904221902 60 0 0.0 0.0 0.00 0.00 0.00 87 1014.0
20260904221427 61 0 0.0 0.0 0.00 0.00 0.00 84 1013.9
20260904220948 61 0 0.0 0.0 0.00 0.00 0.00 80 1014.0
20260904220521 61 0 0.0 0.0 0.00 0.00 0.00 78 1013.9
20260904220047 61 0 0.0 0.0 0.00 0.00 0.00 75 1014.0
20260904215612 62 0 0.0 0.0 0.00 0.00 0.00 73 1014.3
20260904215137 62 0 0.0 0.0 0.00 0.00 0.00 72 1014.1
20260904214707 62 0 0.0 0.0 0.00 0.00 0.00 71 1013.7
20260904214227 63 0 0.0 0.0 0.00 0.00 0.00 70 1013.9
20260904213815 63 0 0.0 0.0 0.00 0.00 0.00 70 1013.8
20260904213332 63 0 0.0 0.0 0.00 0.00 0.00 70 1013.7
20260904212847 63 0 0.0 0.0 0.00 0.00 0.00 70 1013.8
20260904212425 63 0 0.0 0.0 0.00 0.00 0.00 70 1013.9
20260904212005 63 0 0.0 0.0 0.00 0.00 0.00 70 1013.9
20260904211557 63 0 0.0 0.0 0.00 0.00 0.00 70 1013.9
20260904211134 64 0 0.0 0.0 0.00 0.00 0.00 71 1014.1
20260904210727 64 0 0.0 0.0 0.00 0.00 0.00 70 1013.8
20260904210307 63 0 0.0 0.0 0.00 0.00 0.00 70 1013.8
20260904205832 63 0 0.0 0.0 0.00 0.00 0.00 70 1013.8
20260904205402 64 0 0.0 0.0 0.00 0.00 0.00 70 1013.7
20260904204932 64 0 0.0 0.0 0.00 0.00 0.00 69 1013.9
20260904204456 64 0 0.0 0.0 0.00 0.00 0.00 69 1013.9
20260904204017 64 0 0.0 0.0 0.00 0.00 0.00 69 1013.9
20260904203542 64 0 0.0 0.0 0.00 0.00 0.00 69 1014.0
20260904203102 64 0 0.0 0.0 0.00 0.00 0.00 68 1013.9
20260904202641 64 0 0.0 0.0 0.00 0.00 0.00 68 1013.9
20260904202212 64 0 0.0 0.0 0.00 0.00 0.00 67 1014.1
20260904201724 64 0 0.0 0.0 0.00 0.00 0.00 67 1013.8
20260904201256 64 0 0.0 0.0 0.00 0.00 0.00 67 1014.1
20260904200837 64 0 0.0 0.0 0.00 0.00 0.00 66 1014.3
20260904200416 64 0 0.0 0.0 0.00 0.00 0.00 67 1014.0
20260904195942 64 0 0.0 0.0 0.00 0.00 0.00 66 1014.0
20260904195512 64 0 0.0 0.0 0.00 0.00 0.00 66 1013.7
20260904195031 64 0 0.0 0.0 0.00 0.00 0.00 65 1013.7
20260904194612 65 0 0.0 0.0 0.00 0.00 0.00 65 1013.6
20260904194146 65 0 0.0 0.0 0.00 0.00 0.00 63 1013.7
20260904193714 65 0 0.0 0.0 0.00 0.00 0.00 62 1013.7
20260904193237 66 0 0.0 0.0 0.00 0.00 0.00 62 1014.1
20260904192804 66 0 0.0 0.0 0.00 0.00 0.00 63 1014.1
20260904192325 67 0 0.0 0.0 0.00 0.00 0.00 63 1013.6
20260904191852 68 0 0.0 0.0 0.00 0.00 0.00 64 1013.3
20260904191432 68 0 0.0 0.0 0.00 0.00 0.00 64 1013.4
20260904190947 67 0 0.0 0.0 0.00 0.00 0.00 64 1013.3
20260904190514 68 0 0.0 0.0 0.00 0.00 0.00 65 1013.2
20260904190047 68 0 0.0 0.0 0.00 0.00 0.00 64 1013.1
20260904185632 69 0 0.0 0.0 0.00 0.00 0.00 64 1012.8
20260904185215 70 0 0.0 0.0 0.00 0.00 0.00 63 1013.0
20260904184754 71 0 0.0 0.0 0.00 0.00 0.00 61 1012.8
20260904184317 72 0 0.0 0.0 0.00 0.00 0.00 60 1012.4
20260904183900 73 0 0.0 0.0 0.00 0.00 0.00 58 1012.2
20260904183443 73 0 0.0 0.0 0.00 0.00 0.00 58 1011.9
20260904183027 73 0 0.0 0.0 0.00 0.00 0.00 58 1011.5
20260904182602 73 0 0.0 0.0 0.00 0.00 0.00 58 1011.3
20260904182130 74 0 0.0 0.0 0.00 0.00 0.00 58 1011.3
20260904181701 73 0 0.0 0.0 0.00 0.00 0.00 58 1011.1
20260904181257 73 0 0.0 0.0 0.00 0.00 0.00 59 1011.0
20260904180832 73 0 0.0 0.0 0.00 0.00 0.00 59 1011.0
20260904180356 72 0 0.0 0.0 0.00 0.00 0.00 59 1010.8
20260904175939 73 0 0.0 0.0 0.00 0.00 0.00 59 1010.7
20260904175457 73 0 0.0 0.0 0.00 0.00 0.00 59 1010.7
20260904175027 73 0 0.0 0.0 0.00 0.00 0.00 59 1010.8
20260904174543 73 0 0.0 0.0 0.00 0.00 0.00 60 1010.7
20260904174106 72 0 0.0 0.0 0.00 0.00 0.00 60 1010.6
20260904173645 72 0 0.0 0.0 0.00 0.00 0.00 60 1010.6
20260904173214 73 0 0.0 0.0 0.00 0.00 0.00 59 1010.7
20260904172739 73 0 0.0 0.0 0.00 0.00 0.00 59 1011.1
20260904172307 73 0 0.0 0.0 0.00 0.00 0.00 59 1011.3
20260904171846 73 0 0.0 0.0 0.00 0.00 0.00 59 1011.3
20260904171407 73 0 0.0 0.0 0.00 0.00 0.00 59 1011.4
20260904170942 73 0 0.0 0.0 0.00 0.00 0.00 59 1011.4
20260904170521 73 0 0.0 0.0 0.00 0.00 0.00 59 1011.3
20260904170105 73 0 0.0 0.0 0.00 0.00 0.00 59 1011.5
20260904165620 73 0 0.0 0.0 0.00 0.00 0.00 59 1011.4
20260904165157 73 0 0.0 0.0 0.00 0.00 0.00 60 1011.4
20260904164722 73 0 0.0 0.0 0.00 0.00 0.00 60 1011.4
20260904164245 73 0 0.0 0.0 0.00 0.00 0.00 60 1011.4
20260904163842 73 0 0.0 0.0 0.00 0.00 0.00 60 1011.4
20260904163414 73 0 0.0 0.0 0.00 0.00 0.00 60 1011.5
20260904162952 73 0 0.0 0.0 0.00 0.00 0.00 61 1011.6
20260904162516 73 0 0.0 0.0 0.00 0.00 0.00 60 1011.7
20260904162042 73 0 0.0 0.0 0.00 0.00 0.00 60 1011.6
20260904161620 73 0 0.0 0.0 0.00 0.00 0.00 61 1011.6
20260904161157 73 0 0.0 0.0 0.00 0.00 0.00 60 1011.7
20260904160732 73 0 0.0 0.0 0.00 0.00 0.00 60 1011.7
20260904160302 73 0 0.0 0.0 0.00 0.00 0.00 60 1011.7
20260904155836 73 0 0.0 0.0 0.00 0.00 0.00 60 1011.8
20260904155401 73 0 0.0 0.0 0.00 0.00 0.00 60 1011.8
20260904154932 73 0 0.0 0.0 0.00 0.00 0.00 60 1011.7
20260904154504 74 0 0.0 0.0 0.00 0.00 0.00 61 1011.8
20260904154052 73 0 0.0 0.0 0.00 0.00 0.00 61 1011.7
20260904153622 73 0 0.0 0.0 0.00 0.00 0.00 60 1011.7
20260904153147 73 0 0.0 0.0 0.00 0.00 0.00 60 1011.8
20260904152712 73 0 0.0 0.0 0.00 0.00 0.00 60 1011.8
20260904152247 73 0 0.0 0.0 0.00 0.00 0.00 59 1011.8
20260904151802 74 0 0.0 0.0 0.00 0.00 0.00 58 1011.9
20260904151330 74 0 0.0 0.0 0.00 0.00 0.00 58 1011.8
20260904150912 75 0 0.0 0.0 0.00 0.00 0.00 58 1011.7
20260904150452 75 0 0.0 0.0 0.00 0.00 0.00 56 1011.8
20260904150013 75 0 0.0 0.0 0.00 0.00 0.00 56 1011.7
20260904145552 76 0 0.0 0.0 0.00 0.00 0.00 56 1011.7
20260904145127 76 0 0.0 0.0 0.00 0.00 0.00 56 1011.8
20260904144712 76 0 0.0 0.0 0.00 0.00 0.00 55 1011.7
20260904144229 75 0 0.0 0.0 0.00 0.00 0.00 55 1012.0
20260904143807 76 0 0.0 0.0 0.00 0.00 0.00 55 1011.9
20260904143342 76 0 0.0 0.0 0.00 0.00 0.00 55 1012.1
20260904142927 76 0 0.0 0.0 0.00 0.00 0.00 56 1012.2
20260904142521 75 0 0.0 0.0 0.00 0.00 0.00 54 1012.3
20260904142042 76 0 0.0 0.0 0.00 0.00 0.00 56 1012.4
20260904141611 76 0 0.0 0.0 0.00 0.00 0.00 57 1012.5
20260904141203 75 0 0.0 0.0 0.00 0.00 0.00 57 1012.8
20260904140742 76 0 0.0 0.0 0.00 0.00 0.00 55 1012.7
20260904140315 76 0 0.0 0.0 0.00 0.00 0.00 57 1012.6
20260904135910 76 0 0.0 0.0 0.00 0.00 0.00 56 1012.6
20260904135432 77 0 0.0 0.0 0.00 0.00 0.00 56 1012.8
20260904135011 76 0 0.0 0.0 0.00 0.00 0.00 56 1012.7
20260904134546 75 0 0.0 0.0 0.00 0.00 0.00 59 1012.8
20260904134131 74 0 0.0 0.0 0.00 0.00 0.00 59 1013.0
20260904133707 75 0 0.0 0.0 0.00 0.00 0.00 59 1013.0
20260904133233 75 0 0.0 0.0 0.00 0.00 0.00 61 1013.1
20260904132757 74 0 0.0 0.0 0.00 0.00 0.00 59 1013.2
20260904132332 74 0 0.0 0.0 0.00 0.00 0.00 60 1013.6
20260904131857 74 0 0.0 0.0 0.00 0.00 0.00 59 1013.4
20260904131432 74 0 0.0 0.0 0.00 0.00 0.00 58 1013.4
20260904131002 74 0 0.0 0.0 0.00 0.00 0.00 59 1013.3
20260904130517 74 0 0.0 0.0 0.00 0.00 0.00 59 1013.5
20260904130053 74 0 0.0 0.0 0.00 0.00 0.00 60 1013.3
20260904125637 74 0 0.0 0.0 0.00 0.00 0.00 62 1013.7
20260904125207 74 0 0.0 0.0 0.00 0.00 0.00 60 1013.6
20260904124726 73 0 0.0 0.0 0.00 0.00 0.00 60 1013.8
20260904124302 73 0 0.0 0.0 0.00 0.00 0.00 60 1013.8
20260904123829 74 0 0.0 0.0 0.00 0.00 0.00 61 1013.7
20260904123356 74 0 0.0 0.0 0.00 0.00 0.00 61 1013.7
20260904122922 74 0 0.0 0.0 0.00 0.00 0.00 62 1013.9
20260904122442 74 0 0.0 0.0 0.00 0.00 0.00 60 1013.9
20260904122005 74 0 0.0 0.0 0.00 0.00 0.00 61 1014.0
20260904121552 74 0 0.0 0.0 0.00 0.00 0.00 60 1014.2
20260904121125 74 0 0.0 0.0 0.00 0.00 0.00 59 1014.2
20260904120651 74 0 0.0 0.0 0.00 0.00 0.00 60 1014.2
20260904120232 75 0 0.0 0.0 0.00 0.00 0.00 60 1014.2
20260904115812 75 0 0.0 0.0 0.00 0.00 0.00 61 1014.3
20260904115319 74 0 0.0 0.0 0.00 0.00 0.00 60 1014.2
20260904114902 74 0 0.0 0.0 0.00 0.00 0.00 61 1014.1
20260904114419 74 0 0.0 0.0 0.00 0.00 0.00 63 1014.3
20260904114006 73 0 0.0 0.0 0.00 0.00 0.00 64 1014.5
20260904113532 72 0 0.0 0.0 0.00 0.00 0.00 64 1014.5
20260904113112 71 0 0.0 0.0 0.00 0.00 0.00 63 1014.7
20260904112641 72 0 0.0 0.0 0.00 0.00 0.00 65 1014.6
20260904112237 72 0 0.0 0.0 0.00 0.00 0.00 65 1014.7
20260904111800 71 0 0.0 0.0 0.00 0.00 0.00 65 1014.7
20260904111329 71 0 0.0 0.0 0.00 0.00 0.00 63 1014.6
20260904110857 72 0 0.0 0.0 0.00 0.00 0.00 64 1015.0
20260904110437 72 0 0.0 0.0 0.00 0.00 0.00 63 1015.0
20260904110007 72 0 0.0 0.0 0.00 0.00 0.00 66 1015.1
20260904105547 72 0 0.0 0.0 0.00 0.00 0.00 65 1015.0
20260904105111 71 0 0.0 0.0 0.00 0.00 0.00 65 1014.9
20260904104640 71 0 0.0 0.0 0.00 0.00 0.00 66 1015.1
20260904104216 71 0 0.0 0.0 0.00 0.00 0.00 68 1015.5
20260904103805 70 0 0.0 0.0 0.00 0.00 0.00 66 1015.2
20260904103342 70 0 0.0 0.0 0.00 0.00 0.00 65 1015.3
20260904102917 70 0 0.0 0.0 0.00 0.00 0.00 64 1015.2
20260904102427 71 0 0.0 0.0 0.00 0.00 0.00 64 1015.5
20260904101952 73 0 0.0 0.0 0.00 0.00 0.00 66 1015.5
20260904101530 72 0 0.0 0.0 0.00 0.00 0.00 66 1015.6
20260904101112 71 0 0.0 0.0 0.00 0.00 0.00 65 1015.6
20260904100637 71 0 0.0 0.0 0.00 0.00 0.00 64 1015.6